Home   Weather   Zárate   Past weeks

Flag for Argentina Past Weather in Zárate, Buenos Aires, Argentina — Yesterday and Last 2 Weeks

Now
75 °F

Sunny.


Feels Like: 78 °F
Forecast: 49 / 78 °F
Wind: 8 mph from North

Location: Buenos Aires Airport

Current Time: Apr 30, 2017 at 3:57:25 pm

Latest Report: Apr 30, 2017 at 3:00 pm


Visibility: 10 mi

Pressure: 30.09 "Hg

Humidity: 44%

Dew Point: 52 °F

Location of ZárateLocation

Past Weather in Zárate — Graph

°F

Zárate Temperature Yesterday

Maximum temperature yesterday: 72 °F (at 2:00 pm)
Minimum temperature yesterday: 59 °F (at 6:00 am)
Average temperature yesterday: 66 °F

High & Low Weather Summary for the Past Weeks

 TemperatureHumidityPressure
High79 °F (Apr 28, 3:00 pm)94% (Apr 19, 3:00 pm)30.27 "Hg (Apr 19, 3:00 pm)
Low50 °F (Apr 27, 3:00 am)21% (Apr 27, 5:00 pm)29.62 "Hg (Apr 25, 4:00 pm)
Average64 °F68%30.00 "Hg
* Reported Apr 15 2:00 pm — Apr 30 2:00 pm, Zárate, Weather by CustomWeather, © 2017

Note: Actual official high and low records may vary slightly from our data, if they occured in-between our weather recording intervals... More about our weather records

Advertising

Zárate Weather History for the Previous 24 Hours

Scroll right to see more
 ConditionsComfort  
Time TempWeatherWind HumidityBarometerVisibility
2:00 pm
Sun, Apr 30
73 °FSunny.9 mph50%30.12 "Hg10 mi
1:00 pm72 °FSunny.9 mph53%30.15 "Hg10 mi
12:00 pm72 °FSunny.14 mph44%30.15 "Hg10 mi
11:00 am66 °FSunny.8 mph60%30.18 "Hg10 mi
10:00 am63 °FSunny.7 mph68%30.18 "Hg10 mi
9:00 am61 °FPassing clouds.5 mph68%30.15 "HgN/A
8:00 am59 °FSunny.6 mph68%30.15 "Hg10 mi
7:00 am57 °FClear.6 mph77%30.12 "Hg10 mi
6:00 am57 °FClear.8 mph67%30.15 "Hg10 mi
5:00 am59 °FClear.7 mph63%30.15 "Hg10 mi
4:00 am59 °FClear.8 mph63%30.15 "Hg10 mi
3:00 am61 °FClear.7 mph68%30.15 "Hg10 mi
2:00 am61 °FClear.3 mph77%30.15 "Hg10 mi
1:00 am63 °FClear.6 mph68%30.15 "Hg10 mi
12:00 am63 °FClear.6 mph73%30.15 "Hg10 mi
11:00 pm
Sat, Apr 29
64 °FClear.9 mph73%30.15 "Hg10 mi
10:00 pm64 °FClear.7 mph73%30.15 "Hg10 mi
9:00 pm66 °FClear.6 mph73%30.12 "Hg10 mi
8:00 pm66 °FClear.5 mph73%30.12 "Hg10 mi
7:00 pm68 °FClear.5 mph69%30.12 "Hg10 mi
6:00 pm68 °FPassing clouds.6 mph78%30.12 "HgN/A
5:00 pm70 °FSunny.7 mph73%30.12 "Hg10 mi
4:00 pm72 °FSunny.6 mph61%30.12 "Hg10 mi
3:00 pm72 °FSunny.7 mph61%30.12 "Hg10 mi
Weather by CustomWeather, © 2017

See weather overviewHow to use our weather pages